When you browse on this site, cookies collect data to enhance your experience and personalize the content and advertising you see.
Visit our Privacy Policy to learn more. By continuing to use the site, you agree to this use of cookies and data.
  • In Schweiz
  • Länderverzeichnis
  • Für 7 Tage
  • Wassertemperatur
  • Satellitenkarten
  • Wetterkarte
  • Widgets
  • user-avatar
    Anmelden

    Stündliche Wetter San Miguel de Tucumán

    Heute, 21 März, Donnerstag

    Zeit Temperatur Niederschläge Wind Luftdruck Luftfeuchtigkeit
    00:00 +14°C° 0 mm 0 m/S 724 mmHg 90%
    01:00 +14°C° 0 mm 0 m/S 724 mmHg 90%
    02:00 +13°C° 0 mm 0 m/S 724 mmHg 89%
    03:00 +12°C° 0 mm 0 m/S 724 mmHg 89%
    04:00 +12°C° 0 mm 0 m/S 724 mmHg 89%
    05:00 +12°C° 0 mm 0 m/S 723 mmHg 88%
    06:00 +13°C° 0 mm 0 m/S 723 mmHg 85%
    07:00 +15°C° 0 mm 1 m/S 723 mmHg 81%
    08:00 +16°C° 0 mm 1 m/S 723 mmHg 77%
    09:00 +19°C° 0 mm 1 m/S 723 mmHg 71%
    10:00 +20°C° 0 mm 2 m/S 723 mmHg 64%
    11:00 +22°C° 0 mm 3 m/S 723 mmHg 58%
    12:00 +24°C° 0 mm 3 m/S 722 mmHg 59%
    13:00 +24°C° 0 mm 3 m/S 721 mmHg 59%
    14:00 +24°C° 0 mm 3 m/S 720 mmHg 59%
    15:00 +24°C° 0 mm 3 m/S 720 mmHg 61%
    16:00 +24°C° 0 mm 2 m/S 719 mmHg 64%
    17:00 +24°C° 0 mm 2 m/S 719 mmHg 66%
    18:00 +22°C° 0 mm 1 m/S 719 mmHg 72%
    19:00 +21°C° 0 mm 1 m/S 719 mmHg 79%
    20:00 +19°C° 0 mm 1 m/S 720 mmHg 85%
    21:00 +19°C° 0 mm 1 m/S 720 mmHg 86%
    22:00 +19°C° 0 mm 1 m/S 720 mmHg 87%
    23:00 +18°C° 0 mm 1 m/S 720 mmHg 88%

    Morgen, 22 März, Freitag

    Zeit Temperatur Niederschläge Wind Luftdruck Luftfeuchtigkeit
    00:00 +18°C° 0 mm 1 m/S 720 mmHg 89%
    01:00 +18°C° 0 mm 1 m/S 720 mmHg 90%
    02:00 +16°C° 0 mm 1 m/S 720 mmHg 91%
    03:00 +16°C° 0 mm 1 m/S 720 mmHg 91%
    04:00 +15°C° 0 mm 0 m/S 720 mmHg 91%
    05:00 +15°C° 0 mm 0 m/S 720 mmHg 91%
    06:00 +16°C° 0 mm 0 m/S 720 mmHg 87%
    07:00 +17°C° 0 mm 0 m/S 721 mmHg 84%
    08:00 +18°C° 0 mm 0 m/S 722 mmHg 80%
    09:00 +22°C° 0 mm 1 m/S 722 mmHg 73%
    10:00 +25°C° 0 mm 1 m/S 722 mmHg 67%
    11:00 +27°C° 0 mm 2 m/S 722 mmHg 60%
    12:00 +28°C° 0 mm 2 m/S 722 mmHg 58%
    13:00 +28°C° 0 mm 2 m/S 721 mmHg 57%
    14:00 +29°C° 0 mm 2 m/S 721 mmHg 55%
    15:00 +29°C° 0 mm 2 m/S 720 mmHg 59%
    16:00 +28°C° 0 mm 2 m/S 720 mmHg 63%
    17:00 +27°C° 0 mm 1 m/S 720 mmHg 67%
    18:00 +26°C° 0 mm 1 m/S 720 mmHg 73%
    19:00 +24°C° 0 mm 1 m/S 720 mmHg 78%
    20:00 +21°C° 0 mm 0 m/S 721 mmHg 83%
    21:00 +21°C° 0 mm 0 m/S 721 mmHg 84%
    22:00 +23°C° 0 mm 1 m/S 721 mmHg 85%
    23:00 +22°C° 0 mm 1 m/S 722 mmHg 86%

    übermorgen, 23 März, Samstag

    Zeit Temperatur Niederschläge Wind Luftdruck Luftfeuchtigkeit
    00:00 +22°C° 0 mm 1 m/S 721 mmHg 88%
    01:00 +21°C° 0 mm 1 m/S 721 mmHg 89%
    02:00 +21°C° 0 mm 1 m/S 721 mmHg 91%
    03:00 +20°C° 0 mm 1 m/S 721 mmHg 91%
    04:00 +20°C° 0 mm 1 m/S 720 mmHg 92%
    05:00 +20°C° 0 mm 1 m/S 720 mmHg 92%
    06:00 +21°C° 0 mm 1 m/S 720 mmHg 87%
    07:00 +22°C° 0 mm 1 m/S 721 mmHg 83%
    08:00 +23°C° 0 mm 1 m/S 721 mmHg 78%
    09:00 +25°C° 0 mm 2 m/S 721 mmHg 71%
    10:00 +27°C° 0 mm 2 m/S 721 mmHg 63%
    11:00 +30°C° 0 mm 2 m/S 721 mmHg 55%
    12:00 +30°C° 0 mm 2 m/S 720 mmHg 54%
    13:00 +31°C° 0 mm 3 m/S 719 mmHg 53%
    14:00 +33°C° 0 mm 3 m/S 719 mmHg 52%
    15:00 +31°C° 0 mm 2 m/S 718 mmHg 56%
    16:00 +30°C° 0 mm 2 m/S 718 mmHg 61%
    17:00 +29°C° 0 mm 1 m/S 717 mmHg 65%
    18:00 +28°C° 0 mm 1 m/S 718 mmHg 69%
    19:00 +27°C° 0 mm 1 m/S 718 mmHg 73%
    20:00 +25°C° 0 mm 1 m/S 719 mmHg 77%
    21:00 +25°C° 0 mm 1 m/S 719 mmHg 79%
    22:00 +24°C° 0 mm 1 m/S 720 mmHg 81%
    23:00 +23°C° 0 mm 1 m/S 720 mmHg 83%

    24 März, Sonntag

    Zeit Temperatur Niederschläge Wind Luftdruck Luftfeuchtigkeit
    00:00 +23°C° 0 mm 1 m/S 720 mmHg 83%
    01:00 +23°C° 0 mm 1 m/S 720 mmHg 83%
    02:00 +23°C° 0 mm 1 m/S 720 mmHg 83%
    03:00 +22°C° 0 mm 1 m/S 720 mmHg 84%
    04:00 +20°C° 0 mm 0 m/S 720 mmHg 85%
    05:00 +19°C° 0 mm 0 m/S 720 mmHg 85%
    06:00 +21°C° 0 mm 0 m/S 721 mmHg 83%
    07:00 +24°C° 0 mm 1 m/S 721 mmHg 80%
    08:00 +25°C° 0 mm 1 m/S 722 mmHg 77%
    09:00 +26°C° 0 mm 1 m/S 722 mmHg 71%
    10:00 +28°C° 0 mm 1 m/S 723 mmHg 64%
    11:00 +30°C° 0 mm 2 m/S 723 mmHg 57%
    12:00 +31°C° 0.1 mm 2 m/S 722 mmHg 55%
    13:00 +31°C° 0.1 mm 2 m/S 721 mmHg 52%
    14:00 +32°C° 0.1 mm 2 m/S 721 mmHg 50%
    15:00 +31°C° 0.1 mm 2 m/S 720 mmHg 52%
    16:00 +31°C° 0.1 mm 1 m/S 720 mmHg 55%
    17:00 +30°C° 0.1 mm 1 m/S 719 mmHg 58%
    18:00 +28°C° 0.1 mm 1 m/S 720 mmHg 65%
    19:00 +26°C° 0.1 mm 1 m/S 720 mmHg 73%
    20:00 +24°C° 0.1 mm 1 m/S 721 mmHg 81%
    21:00 +24°C° 0.5 mm 1 m/S 721 mmHg 84%
    22:00 +23°C° 0.5 mm 1 m/S 721 mmHg 87%
    23:00 +23°C° 0.5 mm 1 m/S 722 mmHg 90%

    25 März, Montag

    Zeit Temperatur Niederschläge Wind Luftdruck Luftfeuchtigkeit
    00:00 +23°C° 0.3 mm 1 m/S 722 mmHg 92%
    01:00 +22°C° 0.3 mm 1 m/S 721 mmHg 94%
    02:00 +22°C° 0.3 mm 1 m/S 721 mmHg 95%
    03:00 +21°C° 0.4 mm 2 m/S 721 mmHg 96%
    04:00 +21°C° 0.4 mm 2 m/S 721 mmHg 96%
    05:00 +20°C° 0.4 mm 2 m/S 721 mmHg 97%
    06:00 +20°C° 0.7 mm 3 m/S 722 mmHg 96%
    07:00 +19°C° 0.7 mm 3 m/S 722 mmHg 95%
    08:00 +18°C° 0.7 mm 3 m/S 723 mmHg 94%
    09:00 +18°C° 0.2 mm 3 m/S 723 mmHg 89%
    10:00 +18°C° 0.2 mm 2 m/S 723 mmHg 85%
    11:00 +18°C° 0.2 mm 2 m/S 723 mmHg 80%
    12:00 +19°C° 0.1 mm 2 m/S 722 mmHg 76%
    13:00 +20°C° 0.1 mm 2 m/S 722 mmHg 71%
    14:00 +20°C° 0.1 mm 2 m/S 721 mmHg 67%
    15:00 +21°C° 0 mm 1 m/S 721 mmHg 68%
    16:00 +21°C° 0 mm 1 m/S 721 mmHg 68%
    17:00 +21°C° 0 mm 1 m/S 721 mmHg 69%
    18:00 +20°C° 0 mm 1 m/S 722 mmHg 73%
    19:00 +19°C° 0 mm 1 m/S 722 mmHg 78%
    20:00 +18°C° 0 mm 1 m/S 723 mmHg 82%
    21:00 +18°C° 0.1 mm 1 m/S 723 mmHg 84%
    22:00 +18°C° 0.1 mm 1 m/S 723 mmHg 85%
    23:00 +18°C° 0.1 mm 1 m/S 724 mmHg 86%

    26 März, Dienstag

    Zeit Temperatur Niederschläge Wind Luftdruck Luftfeuchtigkeit
    00:00 +16°C° 0 mm 1 m/S 724 mmHg 87%
    01:00 +16°C° 0 mm 1 m/S 724 mmHg 87%
    02:00 +16°C° 0 mm 1 m/S 724 mmHg 87%
    03:00 +16°C° 0.3 mm 1 m/S 724 mmHg 87%
    04:00 +15°C° 0.3 mm 0 m/S 724 mmHg 87%
    05:00 +15°C° 0.3 mm 0 m/S 724 mmHg 88%
    06:00 +15°C° 0.5 mm 0 m/S 725 mmHg 88%
    07:00 +15°C° 0.5 mm 0 m/S 725 mmHg 89%
    08:00 +15°C° 0.5 mm 0 m/S 726 mmHg 89%
    09:00 +15°C° 0.3 mm 0 m/S 726 mmHg 90%
    10:00 +16°C° 0.3 mm 1 m/S 726 mmHg 90%
    11:00 +16°C° 0.3 mm 1 m/S 726 mmHg 90%
    12:00 +18°C° 0 mm 1 m/S 725 mmHg 86%
    13:00 +19°C° 0 mm 1 m/S 725 mmHg 81%
    14:00 +19°C° 0 mm 2 m/S 724 mmHg 77%
    15:00 +20°C° 0 mm 1 m/S 724 mmHg 79%
    16:00 +19°C° 0 mm 1 m/S 724 mmHg 80%
    17:00 +19°C° 0 mm 1 m/S 723 mmHg 82%
    18:00 +18°C° 0 mm 1 m/S 724 mmHg 86%
    19:00 +16°C° 0 mm 1 m/S 724 mmHg 91%
    20:00 +15°C° 0 mm 1 m/S 724 mmHg 95%
    21:00 +15°C° 0 mm 1 m/S 725 mmHg 95%
    22:00 +15°C° 0 mm 1 m/S 725 mmHg 96%
    23:00 +14°C° 0 mm 0 m/S 725 mmHg 96%
    Mehr zeigen